CAPE
307 24 55 6 6 23 20 28 0 0 0 0 0 105 0 0 0 0 0 0 2 2 2 3 4 5 4 3 3 3 2 4 4
577 74 30 9 24 22 15 10 0 0 0 26 39 0 0 0 0 0 0 0 2 3 4 4 4 4 4 2 2 3 3 5 5
735 363 95 33 21 16 11 0 0 0 0 0 0 0 0 0 0 0 0 1 1 1 1 3 3 3 1 1 1 1 2 4 4
661 470 253 1 0 6 2 0 0 0 0 0 0 0 0 0 0 0 0 0 1 0 0 0 0 0 0 0 0 0 0 0 1
498 279 158 95 10 4 0 0 0 0 0 0 0 0 0 0 0 0 0 0 0 0 0 0 0 0 0 0 0 0 0 0 0
214 59 7 102 97 68 0 0 0 0 0 0 0 0 0 0 0 0 0 0 0 0 0 0 0 0 0 0 0 0 0 0 0
171 4 28 220 219 204 141 71 0 0 0 0 0 0 0 0 0 0 0 0 0 0 0 0 0 0 0 0 0 0 0 0 0
37 0 9 181 175 87 202 162 0 0 0 0 0 0 0 0 0 0 0 0 0 0 0 0 0 7 9 5 0 0 0 0 0
5 0 4 85 1 3 0 2 1 0 0 0 0 0 0 0 0 0 0 0 10 24 42 48 59 73 80 90 69 37 19 11 38
1 0 0 0 1 0 0 0 0 0 0 0 0 0 0 0 0 0 0 0 23 46 49 65 70 83 80 78 90 94 73 53 1
3 0 0 0 0 4 0 0 0 0 0 0 0 0 0 0 0 0 0 0 2 43 45 58 61 61 64 49 47 87 72 8 0
2 0 0 0 0 0 0 0 0 0 0 0 0 0 0 0 0 0 0 0 0 3 17 47 52 46 62 40 31 69 43 0 0
6 0 0 0 0 0 0 0 0 0 0 0 0 0 0 0 0 0 0 0 0 0 3 25 40 45 40 33 25 84 23 0 0
0 0 0 0 0 2 0 0 0 0 0 0 0 0 0 0 0 0 0 0 0 0 0 0 0 0 0 3 0 84 0 0 0
0 1 1 0 0 2 3 14 0 0 0 0 0 0 0 0 0 0 0 0 0 0 0 0 0 0 0 0 75 118 0 0 0
2 3 2 2 5 0 6 0 0 0 0 0 0 0 0 0 0 0 0 0 0 0 0 0 0 0 0 106 261 7 3 0 0
25 11 1 0 31 10 4 12 4 0 0 0 0 0 0 0 0 0 0 0 0 0 0 0 0 0 0 0 24 35 4 0 0
60 54 14 4 1 0 46 47 33 0 0 0 0 0 0 0 0 0 0 0 0 0 0 0 0 0 0 0 0 0 0 0 0
79 87 3 5 8 38 33 41 28 10 6 0 0 0 0 7 2 0 0 0 0 0 0 0 0 0 0 0 0 0 0 0 0
113 38 4 12 61 51 48 64 32 33 45 27 1 3 0 0 0 0 0 0 0 0 0 0 0 0 0 0 0 0 0 0 0
CIN
-17 -47 -51 0 -1 -2 0 -27 0 0 0 0 0 -93 0 0 0 0 0 0 0 0 0 0 0 0 0 0 0 0 0 0 0
-3 -90 -66 -1 -4 0 0 0 0 0 0 -1 -2 0 0 0 0 0 0 0 0 0 0 0 0 0 0 0 0 0 0 0 0
0 -13 -69 -22 -3 0 0 0 0 0 0 0 0 0 0 0 0 0 0 -1 0 0 0 0 0 0 0 0 0 0 0 0 0
0 -4 -31 -1 0 0 0 0 0 0 0 0 0 0 0 0 0 0 0 0 0 0 0 0 0 0 0 0 0 0 0 0 0
-2 -18 -39 -51 -19 0 0 0 0 0 0 0 0 0 0 0 0 0 0 0 0 0 0 0 0 0 0 0 0 0 0 0 0
-25 -116 -59 -48 -64 -79 0 0 0 0 0 0 0 0 0 0 0 0 0 0 0 0 0 0 0 0 0 0 0 0 0 0 0
-44 -89 -104 -12 -16 -25 -55 -128 0 0 0 0 0 0 0 0 0 0 0 0 0 0 0 0 0 0 0 0 0 0 0 0 0
-60 0 -68 -18 -23 -84 -36 -62 0 0 0 0 0 0 0 0 0 0 0 0 0 0 0 0 0 -16 -11 -18 0 0 0 0 0
-163 0 -19 -31 -48 -108 -40 -79 0 0 0 0 0 0 0 0 0 0 0 0 -4 0 0 -5 -5 -4 0 -2 -1 -8 -17 -17 0
-76 0 0 0 -134 -71 0 0 0 0 0 0 0 0 0 0 0 0 0 0 -28 -4 -1 0 -1 -2 -4 -2 -2 -2 -2 -1 -6
-123 0 0 0 0 -182 0 0 0 0 0 0 0 0 0 0 0 0 0 0 -22 -26 -11 -7 -5 -7 -5 -6 -3 -3 -1 -20 0
-149 0 0 0 -1 0 0 0 0 0 0 0 0 0 0 0 0 0 0 0 0 -57 -32 -11 -8 -8 -7 -8 -5 -3 -1 0 0
-98 0 0 0 0 0 0 0 0 0 0 0 0 0 0 0 0 0 0 0 0 0 -88 -41 -18 -15 -17 -9 -2 0 -3 0 0
0 0 0 0 0 -57 0 0 0 0 0 0 0 0 0 0 0 0 0 0 0 0 0 0 0 0 0 -9 0 0 0 0 0
0 0 0 0 0 -56 -116 -152 0 0 0 0 0 0 0 0 0 0 0 0 0 0 0 0 0 0 0 0 -12 -2 0 0 0
0 0 0 0 -17 0 -122 0 0 0 0 0 0 0 0 0 0 0 0 0 0 0 0 0 0 0 0 -3 0 0 -9 0 0
-69 -45 -12 0 -24 -14 -70 -102 -30 0 0 0 0 0 0 0 0 0 0 0 0 0 0 0 0 0 0 0 -4 -5 -3 0 0
-41 -45 -87 -13 0 0 -57 -104 -159 0 0 0 0 0 0 0 0 0 0 0 0 0 0 0 0 0 0 0 0 0 0 0 0
-1 -3 -39 -2 -3 -13 -63 -120 -163 -173 -126 0 0 0 0 -179 -87 0 0 0 0 0 0 0 0 0 0 0 0 0 0 0 -19
0 -5 -24 -2 -5 -34 -103 -146 -152 -168 -97 -132 -16 -188 -13 0 0 0 0 0 0 0 0 0 0 0 0 0 0 0 0 0 0
Wind_Speed
14 13 10 14 14 15 14 13 12 10 10 9 13 11 9 7 5 4 6 4 9 10 10 10 10 11 11 11 10 11 11 11 11
13 13 13 13 13 13 13 13 11 10 10 12 12 10 9 5 4 4 3 3 9 9 9 10 10 9 10 9 9 10 9 10 10
15 15 16 14 12 13 13 13 12 10 10 13 11 10 8 5 4 3 2 5 8 8 8 8 8 9 8 8 8 8 8 8 8
17 16 16 16 14 13 13 12 12 11 11 10 11 9 9 6 3 3 2 4 7 7 7 7 7 7 7 7 7 6 7 7 7
16 15 16 15 15 12 11 12 12 11 10 10 8 9 8 5 4 3 3 6 7 6 6 6 5 6 6 5 5 4 5 6 7
11 10 13 15 14 13 12 11 10 9 8 8 7 9 3 4 3 2 6 7 7 6 5 5 5 4 5 4 3 3 3 4 5
9 9 12 14 14 13 12 11 9 8 3 2 5 2 3 3 3 3 7 8 7 6 6 5 4 4 4 3 2 1 1 3 4
6 5 6 6 9 6 6 6 4 5 4 3 3 3 3 2 3 4 8 9 8 8 7 7 6 5 5 5 5 4 2 0 2
7 6 6 6 6 7 5 3 4 5 5 4 4 4 4 3 3 5 9 10 11 10 10 10 10 8 8 8 8 7 5 3 2
8 7 6 6 6 6 5 5 4 5 5 5 5 5 5 5 3 3 8 10 11 12 10 9 7 7 7 6 8 9 8 5 4
8 9 8 7 7 6 6 6 5 4 4 5 5 6 5 5 5 4 5 11 10 11 11 10 8 8 8 6 6 8 7 8 7
10 9 9 8 7 7 6 4 3 3 3 5 4 4 6 5 6 5 4 4 9 10 12 11 10 8 8 7 6 8 11 9 7
10 9 10 7 7 7 6 5 4 4 4 4 5 4 4 6 6 4 4 4 4 7 10 8 8 7 7 8 7 9 11 9 7
9 8 7 6 6 6 6 4 4 3 4 5 5 4 4 5 5 6 6 6 5 4 6 10 8 7 7 10 10 11 12 10 7
9 6 4 6 4 5 4 5 4 4 4 5 5 4 5 4 4 6 5 6 6 5 5 4 4 6 6 9 11 14 12 10 7
12 9 8 8 9 10 8 6 6 7 3 2 3 3 5 5 5 4 4 5 5 5 5 3 2 1 6 7 12 15 13 9 5
15 14 11 10 8 9 9 10 7 6 6 4 1 3 3 4 4 3 4 5 4 4 5 5 5 3 2 4 6 8 9 6 3
17 17 13 11 10 8 10 11 13 9 4 7 4 2 5 0 1 3 3 5 3 4 4 5 5 5 5 6 6 6 4 3 2
16 16 15 11 8 10 11 11 10 6 7 2 3 1 2 4 1 1 2 3 5 5 3 4 4 3 2 4 7 9 6 3 1
16 15 15 11 8 11 12 10 10 9 6 5 3 2 2 1 2 2 1 2 3 4 5 4 3 3 3 4 5 7 5 4 3
Wind_Direction
155 157 141 154 151 136 141 136 130 122 111 117 131 125 109 93 83 80 92 87 98 99 94 87 83 82 79 76 74 72 69 69 68
153 149 150 162 143 141 152 147 140 128 121 128 127 126 114 111 102 100 102 124 108 101 98 94 87 82 80 79 76 72 72 69 66
153 150 146 143 156 161 162 160 150 137 126 137 134 131 127 119 125 115 110 122 115 109 101 98 94 88 84 80 75 72 70 69 67
159 153 152 160 169 177 170 168 158 149 137 142 144 139 137 137 147 149 155 154 125 119 113 106 101 96 91 84 79 74 70 65 60
165 160 164 169 170 178 175 171 167 157 149 140 149 151 142 149 166 171 196 182 150 141 129 116 108 104 98 90 84 72 63 59 49
166 167 171 171 174 175 181 176 168 158 152 146 147 157 162 168 190 192 216 198 173 161 157 151 143 133 124 110 96 76 65 57 46
169 174 177 177 176 179 182 182 171 156 147 151 152 159 177 200 204 210 221 214 195 184 185 184 182 180 168 167 158 136 88 57 40
172 172 189 183 175 172 185 180 176 172 160 173 183 187 203 216 222 224 224 225 215 205 207 210 214 220 222 216 206 204 192 75 13
174 182 182 187 180 175 168 173 183 188 180 183 195 209 212 223 224 229 229 227 233 222 220 220 225 227 234 239 233 213 205 197 331
180 189 183 189 176 177 174 173 184 204 204 195 201 217 225 230 223 218 233 230 235 242 240 245 244 236 245 257 245 225 206 164 116
192 191 191 190 180 178 178 181 183 202 209 226 214 224 232 232 229 222 232 236 236 243 244 244 244 251 263 268 273 217 170 155 145
195 196 197 191 181 168 174 174 182 197 212 243 236 236 233 230 234 222 224 229 231 237 243 241 242 247 255 269 291 187 165 165 157
213 197 204 180 179 169 181 176 196 210 202 232 234 234 230 233 235 222 218 213 222 228 235 247 250 245 246 256 262 197 170 168 166
220 210 198 162 174 178 171 183 198 206 209 226 240 232 231 231 230 225 222 214 209 202 219 229 216 222 237 259 251 193 167 174 171
201 214 173 172 162 170 169 194 199 222 203 225 240 230 229 225 221 230 224 212 204 194 192 189 208 231 241 256 239 168 167 180 182
200 216 184 186 187 196 194 208 201 235 190 174 266 262 235 233 225 231 219 197 178 180 187 178 171 267 232 208 160 168 172 173 176
197 192 198 180 204 195 193 201 218 229 182 179 166 258 300 246 208 204 203 192 151 173 189 173 169 154 92 95 133 166 158 160 161
202 200 191 187 199 201 205 207 206 220 189 205 164 164 222 109 147 212 191 168 168 173 181 188 180 168 153 132 127 123 136 191 201
197 198 189 194 198 208 199 204 204 182 200 216 216 140 145 191 227 323 232 180 181 190 183 188 193 173 152 151 161 155 185 174 199
200 196 183 189 202 217 206 193 199 204 199 187 152 173 156 158 135 216 278 312 218 213 187 172 161 167 173 163 166 154 179 168 172